Regional Weather Roundup
Issued by NWS

Home | Current Version | Previous Version | Graphics & Text | Print | Product List | Glossary On
Versions: 1 2 3 4 5 6 7 8 9 10 11 12 13 14 15 16 17 18 19 20 21 22 23 24 25 26 27 28 29 30 31 32 33 34 35 36 37 38 39 40 41 42 43 44 45 46 47 48 49 50
000
ASUS43 KLMK 281010
RWRKY
KENTUCKY REGIONAL WEATHER ROUNDUP
NATIONAL WEATHER SERVICE LOUISVILLE KY
600 AM EDT THU AUG 28 2014

NOTE "FAIR" INDICATES FEW OR NO CLOUDS BELOW 12,000 FEET
WITH NO SIGNIFICANT WEATHER AND/OR OBSTRUCTIONS TO VISIBILITY.

KYZ001>023-026-027-061>063-070>075-281100-
WESTERN AND SOUTH CENTRAL KENTUCKY

CITY           SKY/WX    TMP DP  RH WIND       PRES   REMARKS
PADUCAH        CLEAR     75  71  87 E3        30.02S
HENDERSON      PTCLDY    73  70  88 CALM      30.03S
OWENSBORO      PTCLDY    75  70  85 CALM      30.03S
HOPKINSVILLE   CLEAR     72  72 100 N3        30.03S
BOWLING GREEN  CLEAR     72  70  93 CALM      30.04R FOG
GLASGOW        CLEAR     70  70 100 CALM      30.04S FOG
$$

KYZ024-025-028>034-038-045-046-053-281100-
NORTH CENTRAL KENTUCKY

CITY           SKY/WX    TMP DP  RH WIND       PRES   REMARKS
LOUISVILLE/SDF PTCLDY    74  72  93 N5        30.05R
LOUISVILLE/LOU CLEAR     73  71  93 CALM      30.05R FOG
FORT KNOX      CLEAR     69  69 100 CALM      30.04S FOG
$$

KYZ035>037-039>044-047>052-055>060-089>105-281100-
NORTHEAST KENTUCKY

CITY           SKY/WX    TMP DP  RH WIND       PRES   REMARKS
LEXINGTON      CLEAR     71  68  90 NE3       30.06R
COVINGTON      PTCLDY    73  67  81 NE6       30.07R
FRANKFORT      CLEAR     69  68  96 CALM      30.05R FOG
$$

KYZ054-064>069-076>088-106>120-281100-
SOUTHEAST KENTUCKY

CITY           SKY/WX    TMP DP  RH WIND       PRES   REMARKS
JACKSON        FOG       69  67  93 CALM      30.06S VSB 1/2
LONDON         CLEAR     70  66  87 CALM      30.07R
SOMERSET       CLEAR     68  68 100 CALM      30.07R FOG
MIDDLESBORO    MOCLDY    64  64  98 CALM      30.08S
MONTICELLO     SUNNY     69  68  97 CALM      30.08R FOG
$$



USA.gov is the U.S. government's official web portal to all federal, state and local government web resources and services.